Retour au catalogue

ONEWEB-0246

ActifCommunicationsPO
NORAD 48786·PAYLOAD·🇬🇧 United Kingdom

Lancé May 28, 2021 depuis Vostochny Cosmodrome

Loading…

Prochains Passages (prochaines 24 heures)

TLE

FraisSource: CelesTrak SupGP

Époque: Sep 14, 2026, 16:59 UTC

1 48786C 21045V   26257.70814075 -.00000215  00000+0 -57056-3 0  2571
2 48786  87.8995 241.3438 0002117  84.4839 328.9151 13.15549173    12

Suivez ONEWEB-0246 en temps réel avec AllMySat

Download on the App Store